Weather History for KEWB - October, 2013

Change the Weather History Date:

Wednesday, October 9, 2013

  Actual Average Record
Temperature  
Mean Temperature 53 °F -  
Max Temperature 63 °F 65 °F 86 °F (2011)
Min Temperature 43 °F 49 °F 28 °F (2001)
Degree Days  
Heating Degree Days 12    
Growing Degree Days 3 (Base 50)    
Moisture  
Dew Point 44 °F    
Average Humidity 77    
Maximum Humidity 93    
Minimum Humidity 52    
Precipitation  
Precipitation 0.00 in - - ()
Sea Level Pressure  
Sea Level Pressure 30.38 in    
Wind  
Wind Speed 4 mph (NNE)    
Max Wind Speed 15 mph    
Max Gust Speed 20 mph    
Visibility 10 miles    
Events      
Averages and records for this station are not official NWS values.
T = Trace of Precipitation, MM = Missing Value Source: NWS Daily Summary

Daily Weather History Graph

Daily Weather History Graph

Search for Another Location

Airport or City:

Trip Planner

Search our weather history database for the weather conditions in past years. The results will help you decide how hot, cold, wet, or windy it might be!

Date:

Astronomy

Oct. 09, 2013 Rise Set
Actual Time 6:49 AM EDT 6:11 PM EDT
Civil Twilight 6:21 AM EDT 6:39 PM EDT
Nautical Twilight 5:49 AM EDT 7:11 PM EDT
Astronomical Twilight 5:17 AM EDT 7:43 PM EDT
Moon 11:45 AM EDT (10/9) 9:40 PM EDT (10/9)
Length of Visible Light 12h 17m
Length of Day
11h 22m
Waxing Crescent, 25% of the Moon is Illuminated
Oct 9
Waxing Crescent
Oct 11
First Quarter
Oct 18
Full
Oct 26
Last Quarter
Nov 3
New

Hourly Weather History & Observations

Time (EDT) Temp. Windchill Dew Point Humidity Pressure Visibility Wind Dir Wind Speed Gust Speed Precip Events Conditions
12:53 AM 46.0 °F - 44.1 °F 93% 30.35 in 10.0 mi Calm Calm - N/A   Clear
1:53 AM 46.9 °F - 44.1 °F 90% 30.36 in 10.0 mi North 3.5 mph - N/A   Clear
2:53 AM 46.0 °F - 44.1 °F 93% 30.36 in 10.0 mi Calm Calm - N/A   Clear
3:53 AM 45.0 °F - 43.0 °F 93% 30.36 in 10.0 mi Calm Calm - N/A   Clear
4:53 AM 45.0 °F 43.5 °F 42.1 °F 90% 30.37 in 10.0 mi North 3.5 mph - N/A   Clear
5:53 AM 45.0 °F 43.5 °F 42.1 °F 90% 30.37 in 10.0 mi North 3.5 mph - N/A   Clear
6:53 AM 43.0 °F - 39.9 °F 89% 30.38 in 10.0 mi Calm Calm - N/A   Clear
7:53 AM 46.9 °F - 44.1 °F 90% 30.40 in 10.0 mi Calm Calm - N/A   Clear
8:53 AM 55.0 °F - 46.9 °F 74% 30.41 in 10.0 mi NE 5.8 mph - N/A   Clear
9:53 AM 59.0 °F - 46.9 °F 64% 30.41 in 10.0 mi NE 11.5 mph 19.6 mph N/A   Partly Cloudy
10:53 AM 62.1 °F - 45.0 °F 53% 30.42 in 10.0 mi NE 12.7 mph - N/A   Clear
11:53 AM 62.1 °F - 45.0 °F 53% 30.41 in 10.0 mi ENE 15.0 mph - N/A   Clear
12:53 PM 61.0 °F - 44.1 °F 54% 30.40 in 10.0 mi ENE 15.0 mph - N/A   Clear
1:53 PM 63.0 °F - 45.0 °F 52% 30.39 in 10.0 mi ENE 12.7 mph - N/A   Clear
2:53 PM 61.0 °F - 44.1 °F 54% 30.38 in 10.0 mi ENE 11.5 mph - N/A   Clear
3:53 PM 60.1 °F - 44.1 °F 55% 30.38 in 10.0 mi NE 11.5 mph - N/A   Clear
4:53 PM 57.9 °F - 44.1 °F 60% 30.38 in 10.0 mi ENE 10.4 mph - N/A   Clear
5:53 PM 55.0 °F - 45.0 °F 69% 30.37 in 10.0 mi NNE 4.6 mph - N/A   Clear
6:53 PM 52.0 °F - 45.0 °F 77% 30.36 in 10.0 mi NNE 3.5 mph - N/A   Clear
7:53 PM 48.0 °F - 45.0 °F 89% 30.36 in 10.0 mi Calm Calm - N/A   Clear
8:53 PM 48.0 °F - 45.0 °F 89% 30.35 in 10.0 mi North 3.5 mph - N/A   Clear
9:53 PM 48.9 °F - 45.0 °F 86% 30.35 in 10.0 mi North 3.5 mph - N/A   Clear
10:53 PM 46.0 °F 43.9 °F 44.1 °F 93% 30.35 in 10.0 mi North 4.6 mph - N/A   Clear
11:53 PM 46.0 °F 44.8 °F 44.1 °F 93% 30.34 in 10.0 mi North 3.5 mph - N/A   Clear